Allentown, PA

6:54 PM EST on November 21, 2017 (GMT -0500)
Lehigh Valley International

Weather History for KABE - May, 2013

Change the Weather History Date:

Monday, May 20, 2013

  Actual Average Record
Temperature  
Mean Temperature 69 °F 61 °F  
Max Temperature 80 °F 73 °F 92 °F (1996)
Min Temperature 58 °F 50 °F 32 °F (2002)
Degree Days  
Heating Degree Days 0 5  
Month to date heating degree days 136 153  
Since 1 July heating degree days 5345 5723  
Cooling Degree Days 4 1  
Month to date cooling degree days 7 14  
Year to date cooling degree days 15 19  
Growing Degree Days 18 (Base 50)    
Moisture  
Dew Point 61 °F    
Average Humidity 81    
Maximum Humidity 100    
Minimum Humidity 62    
Precipitation  
Precipitation T in 0.14 in 1.92 in (1984)
Month to date precipitation 1.39 2.58  
Year to date precipitation 12.67 15.26  
Snow  
Snow 0.00 in 0.00 in 0.00 in ()
Month to date snowfall 0.0 0.0  
Since 1 July snowfall 21.4 32.9  
Snow Depth 0.00 in    
Sea Level Pressure  
Sea Level Pressure 30.07 in    
Wind  
Wind Speed 3 mph (SW)    
Max Wind Speed 14 mph    
Max Gust Speed 16 mph    
Visibility 5 miles    
Events      
T = Trace of Precipitation, MM = Missing Value Source: NWS Daily Summary

Daily Weather History Graph

Daily Weather History Graph

Search for Another Location

Airport or City:

Trip Planner

Search our weather history database for the weather conditions in past years. The results will help you decide how hot, cold, wet, or windy it might be!

Date:

Astronomy

May. 20, 2013 Rise Set
Actual Time 5:40 AM EDT 8:16 PM EDT
Civil Twilight 5:08 AM EDT 8:48 PM EDT
Nautical Twilight 4:29 AM EDT 9:28 PM EDT
Astronomical Twilight 3:45 AM EDT 10:12 PM EDT
Moon 3:20 PM EDT (5/20) 2:35 AM EDT (5/20)
Length of Visible Light 15h 39m
Length of Day
14h 36m
Waxing Gibbous, 75% of the Moon is Illuminated
May 20
Waxing Gibbous
May 25
Full
May 31
Last Quarter
Jun 8
New
Jun 16
First Quarter

Hourly Weather History & Observations

Time (EDT) Temp. Dew Point Humidity Pressure Visibility Wind Dir Wind Speed Gust Speed Precip Events Conditions
12:00 AM 57.2 °F 57.2 °F 100% 30.18 in 4.0 mi East 8.1 mph - N/A   Overcast
12:51 AM 57.9 °F 57.0 °F 97% 30.17 in 3.0 mi East 5.8 mph - N/A   Overcast
1:51 AM 57.9 °F 57.0 °F 97% 30.13 in 5.0 mi East 4.6 mph - 0.00 in   Overcast
2:51 AM 57.9 °F 57.0 °F 97% 30.11 in 4.0 mi Calm Calm - 0.00 in   Overcast
3:22 AM 57.2 °F 57.2 °F 100% 30.10 in 2.5 mi Calm Calm - N/A   Overcast
3:32 AM 57.2 °F 57.2 °F 100% 30.10 in 1.2 mi Calm Calm - N/A   Overcast
3:51 AM 57.9 °F 57.0 °F 97% 30.10 in 1.0 mi Calm Calm - N/A   Mist
4:51 AM 57.9 °F 57.0 °F 97% 30.09 in 1.0 mi East 3.5 mph - N/A   Overcast
5:51 AM 57.9 °F 57.0 °F 97% 30.09 in 1.0 mi Calm Calm - N/A   Overcast
6:22 AM 57.2 °F 57.2 °F 100% 30.10 in 0.8 mi Calm Calm - N/A   Overcast
6:39 AM 57.2 °F 57.2 °F 100% 30.11 in 1.0 mi Calm Calm - N/A   Overcast
6:51 AM 57.9 °F 57.0 °F 97% 30.10 in 1.0 mi Calm Calm - N/A   Overcast
7:29 AM 59.0 °F 57.2 °F 94% 30.11 in 2.0 mi Calm Calm - N/A   Overcast
7:51 AM 59.0 °F 57.9 °F 96% 30.12 in 1.0 mi Calm Calm - N/A   Overcast
8:51 AM 61.0 °F 59.0 °F 93% 30.12 in 1.0 mi Calm Calm - N/A   Overcast
8:59 AM 62.6 °F 59.0 °F 88% 30.11 in 2.0 mi Calm Calm - N/A   Overcast
9:35 AM 62.6 °F 59.0 °F 88% 30.11 in 2.0 mi Calm Calm - N/A   Overcast
9:51 AM 64.0 °F 60.1 °F 87% 30.11 in 5.0 mi Calm Calm - N/A   Overcast
10:51 AM 66.9 °F 62.1 °F 84% 30.10 in 6.0 mi Calm Calm - N/A   Haze
11:00 AM 68.0 °F 62.6 °F 83% 30.10 in 6.0 mi WNW 4.6 mph - N/A   Haze
11:51 AM 72.0 °F 64.0 °F 76% 30.08 in 7.0 mi Calm Calm - N/A   Mostly Cloudy
12:51 PM 73.9 °F 64.0 °F 71% 30.05 in 9.0 mi WSW 5.8 mph - N/A   Overcast
1:51 PM 75.2 °F 64.4 °F 69% 30.04 in 10.0 mi West 6.9 mph - N/A   Overcast
2:51 PM 77.0 °F 64.9 °F 66% 30.03 in 10.0 mi WSW 5.8 mph - N/A   Overcast
3:51 PM 78.1 °F 64.0 °F 62% 30.01 in 10.0 mi SW 10.4 mph - N/A   Scattered Clouds
4:51 PM 78.8 °F 64.4 °F 61% 30.00 in 10.0 mi SW 5.8 mph - N/A   Partly Cloudy
5:51 PM 79.0 °F 64.9 °F 62% 29.99 in 10.0 mi SW 8.1 mph - N/A   Clear
6:51 PM 78.1 °F 64.9 °F 64% 29.97 in 10.0 mi South 9.2 mph - N/A   Clear
7:51 PM 77.0 °F 64.9 °F 66% 29.97 in 10.0 mi SSW 6.9 mph - N/A   Clear
8:51 PM 71.1 °F 64.9 °F 81% 29.99 in 10.0 mi SW 5.8 mph - N/A   Clear
9:51 PM 71.1 °F 66.0 °F 84% 30.00 in 9.0 mi SSW 3.5 mph - N/A   Clear
10:51 PM 69.1 °F 64.9 °F 87% 29.99 in 7.0 mi Calm Calm - N/A   Clear
11:51 PM 66.9 °F 64.9 °F 93% 29.98 in 6.0 mi WNW 3.5 mph - N/A   Clear